www.pogodaiklimat.ru

ПОГОДА в Dzaoudzi

  • Прогноз погоды в Dzaoudzi
  • Монитор погоды в Dzaoudzi
  • Климат города

АРХИВ ПОГОДЫ в Dzaoudzi

Время (UTC), дата Ветер
(напр.,м/с)
 
Видим.   Явления Облачность Т
(С)
Тd
(С)
f
(%)
Тe
(С)
Тes
(С)
Комфортность P
(гПа)
Po
(гПа)
Тmin
(С)
Tmax
(С)
R
(мм)
S
(см)
18 9.01 С 4
{9}
20 км 10/10 600 м
[]
+27.3 +22.9 77 +36 +36 очень
душно
1011.1 1011.0 +29.3 0.8
21 9.01 С 4
{8}
20 км 10/10 600 м
[]
+27.4 +22.6 75 +36 +36 очень
душно
1010.8 1011.0 1
00 10.01 С 3
{6}
20 км н/о +27.2 +22.4 75 +36 +36 очень
душно
1009.8 1010.0 1
03 10.01 СВ 3
{5}
20 км 6/3 700 м
[Cu Sc Ci sp]
+26.8 +22.2 76 +35 +35 очень
душно
1010.7 1011.0
06 10.01 СЗ 5
{10}
20 км н/о +27.8 +23.4 77 +38 +38 очень
душно
1011.8 1012.0 +26.3 2
09 10.01 В 4
{5}
10 км осадки на расстоянии {ливн. осадки} 9/5 700 м
[Cu Sc Ac trans]
+26.1 +22.6 81 +34 +38 очень
душно
1011.8 1012.0 0.2
12 10.01 СВ 3
{6}
10 км {ливн. осадки} 9/3 700 м
[Cu Sc Ac trans Ci sp]
+28.0 +22.7 73 +37 +41 очень
душно
1009.5 1010.0 0.2
15 10.01 СЗ 4
{12}
10 км 9/4 700 м
[Cu Sc Ac trans Ci sp]
+26.5 +21.7 75 +34 +34 очень
душно
1010.0 1010.0
18 10.01 С 2
{7}
20 км 10/10 600 м
[]
+26.9 +21.9 74 +35 +35 очень
душно
1012.0 1012.0 +29.1 0.2
21 10.01 С 2
{5}
20 км 10/10 300 м
[]
+25.5 +22.6 84 +34 +34 очень
душно
1011.1 1011.0 0.6
00 11.01 С 3
{8}
20 км н/о +25.8 +22.5 82 +34 +34 очень
душно
1010.1 1010.0 0.6
03 11.01 СВ 5
{10}
8000 м слабый ливневой дождь 10/6 480 м
[Cu Sc Ac As]
+25.5 +23.0 86 +34 +34 очень
душно
1011.2 1011.0 9
06 11.01 СЗ 3
{12}
18 км 10/10 200 м
[]
+24.7 +22.9 90 +33 +33 очень
душно
1012.7 1013.0 +24.3 12
09 11.01 СВ 6
{11}
15 км 10/6 450 м
[Cb cap Ac As]
+28.2 +22.9 73 +38 +39 очень
душно
1012.1 1012.0 0.4
12 11.01 СВ 5
{9}
15 км 9/5 660 м
[Cu Sc Ac As]
+28.5 +22.7 71 +38 +39 очень
душно
1010.4 1010.0 0.4
15 11.01 СВ 5
{7}
20 км 8/3 660 м
[Cu Sc Ac und Ci sp]
+27.7 +22.4 73 +36 +36 очень
душно
1011.5 1012.0
18 11.01 С 4
{7}
20 км н/о +27.3 +22.5 75 +36 +36 очень
душно
1013.2 1013.0 +28.7 0.4
21 11.01 СВ 3
{5}
20 км 8/0
[]
+26.9 +22.5 77 +35 +35 очень
душно
1013.0 1013.0
00 12.01 СВ 3
{5}
20 км 10/0
[]
+26.9 +22.1 75 +35 +35 очень
душно
1012.2 1012.0
03 12.01 С 4
{5}
20 км 4/3 660 м
[Cu Sc Ci]
+26.6 +22.0 76 +34 +35 очень
душно
1013.2 1013.0
06 12.01 С 4
{8}
20 км 4/3 700 м
[Cu med, cong Ci sp]
+30.0 +22.4 64 +39 +44 очень
душно
1014.5 1015.0 +25.8 0.4
09 12.01 С 3
{8}
9000 м осадки на расстоянии 4/4 660 м
[Cu Sc Ci sp]
+30.9 +22.8 62 +41 +51 опасность
перегрева
1013.6 1014.0
12 12.01 З 5
{8}
9000 м осадки на расстоянии 8/4 660 м
[Cu Sc Ci sp]
+28.1 +20.6 64 +35 +38 очень
душно
1012.1 1012.0
15 12.01 З 1
{3}
20 км 8/0
[]
+28.4 +21.7 67 +36 +36 очень
душно
1012.5 1013.0
18 12.01 В 3
{6}
20 км 10/0
[]
+27.6 +22.3 73 +36 +36 очень
душно
1013.1 1013.0 +31.1
21 12.01 З 2
{4}
20 км 10/0
[]
+26.4 +22.5 79 +35 +35 очень
душно
1012.9 1013.0
00 13.01 ЮВ 1
{3}
20 км н/о +24.9 +22.6 87 +33 +33 очень
душно
1011.3 1011.0
03 13.01 ЮЗ 2
{4}
20 км 9/1 660 м
[Cu Sc Ac trans Cs]
+25.4 +23.1 87 +34 +34 очень
душно
1012.2 1012.0
06 13.01 Ю 2 20 км 6/1 660 м
[Cu Sc Ac trans Ci]
+29.9 +23.1 67 +40 +48 очень
душно
1012.5 1013.0 +24.6
09 13.01 Ю 3
{5}
9000 м осадки на расстоянии 8/4 660 м
[Cu Sc Ac trans Ci fib]
+30.1 +23.3 67 +41 +48 опасность
перегрева
1011.6 1012.0 0.0
12 13.01 З 7
{10}
4000 м слабый ливневой дождь 9/6 540 м
[Cb cap Ac trans Ci]
+29.0 +23.0 70 +39 +39 очень
душно
1009.3 1009.0 0.0
15 13.01 З 1
{3}
15 км {ливн. осадки} 4/1 700 м
[Cu Sc Ac trans Ci sp]
+29.5 +22.7 67 +39 +39 очень
душно
1008.8 1009.0 1
18 13.01 З 2
{3}
20 км н/о +27.3 +22.9 77 +36 +36 очень
душно
1010.2 1010.0 +30.9 1
21 13.01 ЮЗ 2
{4}
20 км н/о +26.0 +22.9 83 +35 +35 очень
душно
1009.7 1010.0
00 14.01 С 2
{3}
20 км н/о +25.7 +22.6 83 +34 +34 очень
душно
1008.4 1008.0
03 14.01 З 4
{9}
9000 м в посл. час ливневой дождь 9/5 480 м
[Cb cap Ac trans Ci sp]
+26.1 +23.8 87 +36 +36 очень
душно
1010.2 1010.0 5
06 14.01 С 5
{7}
20 км 3/1 660 м
[Cu Sc Ac trans Ci sp]
+30.3 +22.5 63 +40 +44 очень
душно
1010.9 1011.0 +25.0 6
09 14.01 С 5
{10}
20 км 5/4 800 м
[Cu Sc Ac trans Ci sp]
+31.5 +22.8 60 +41 +47 опасность
перегрева
1010.6 1011.0
12 14.01 С 6
{11}
20 км 6/4 900 м
[Cu Sc Ac trans Ci sp]
+30.5 +22.7 63 +40 +43 очень
душно
1008.9 1009.0
15 14.01 С 5
{8}
20 км н/о +28.8 +22.1 67 +37 +37 очень
душно
1009.3 1009.0
18 14.01 С 5
{9}
20 км н/о +27.9 +22.2 71 +36 +36 очень
душно
1009.9 1010.0 +31.6
21 14.01 СВ 5
{9}
20 км н/о +27.7 +22.0 71 +36 +36 очень
душно
1010.4 1010.0
00 15.01 С 4
{8}
20 км н/о +27.5 +22.0 72 +36 +36 очень
душно
1010.0 1010.0
03 15.01 С 3
{8}
20 км 6/4 700 м
[Cu Sc Ac trans Ci sp]
+26.7 +22.1 76 +35 +35 очень
душно
1011.2 1011.0
06 15.01 С 6
{11}
20 км н/о +29.8 +22.8 66 +39 +39 очень
душно
1012.4 1012.0 +26.7
09 15.01 СВ 5
{11}
20 км н/о +30.4 +22.6 63 +40 +40 очень
душно
1012.4 1012.0 0.0
12 15.01 СВ 6
{10}
10 км 6/3 800 м
[Cu Sc Ac trans Ci sp]
+30.9 +23.6 65 +42 +45 опасность
перегрева
1011.1 1011.0 0.0
15 15.01 С 4
{8}
10 км 5/1 800 м
[Cu Sc Ac trans Ci sp]
+29.4 +22.4 66 +38 +39 очень
душно
1012.4 1012.0
18 15.01 СВ 3
{5}
20 км 10/0
[]
+27.9 +22.8 74 +37 +37 очень
душно
1013.3 1013.0 +31.2 0.0
21 15.01 С 3
{6}
20 км н/о +27.6 +23.2 77 +37 +37 очень
душно
1012.9 1013.0
00 16.01 С 2
{4}
20 км 10/10 600 м
[]
+27.6 +23.0 76 +37 +37 очень
душно
1012.4 1012.0
03 16.01 СВ 4
{7}
20 км 8/8 600 м
[]
+27.6 +21.9 71 +36 +36 очень
душно
1013.5 1014.0
06 16.01 СВ 6
{10}
20 км н/о +30.2 +22.9 65 +40 +40 очень
душно
1014.2 1014.0 +27.2 0.0
09 16.01 С 7
{11}
20 км 5/4 700 м
[Cu Sc Ci sp]
+31.4 +23.5 63 +42 +46 опасность
перегрева
1012.9 1013.0
12 16.01 С 6
{11}
20 км 4/3 750 м
[Cu med, cong Ac trans Ci sp]
+30.8 +23.5 65 +42 +45 опасность
перегрева
1011.6 1012.0
15 16.01 С 5
{9}
20 км 4/3 660 м
[Cu med, cong Ac trans Ci sp]
+29.0 +21.8 65 +37 +37 очень
душно
1012.4 1012.0

 

Местоположение метеостанции Dzaoudzi (Коморские Острова): широта -12.80 долгота 45.28 высота над уровнем моря 7 м.

В архиве по умолчанию представлена погода в Dzaoudzi за последнюю неделю. Архивные данные за месяц целиком и за предыдущие месяцы, начиная с января 2011 года, Вы можете получить, выбрав интересующий диапазон дат из раскрывающегося списка и нажав кнопку "Ввод!".

Внимание! Время в таблицах - всемирное. Для получения местного времени необходимо прибавить поправку, которая в Dzaoudzi равна 3 ч.

Ветер - указаны скорость ветра в м/с - средняя за 10 мин, порывы в срок и между сроками (в фигурных скобках) и направление, откуда дует ветер: С - северный, СВ - северо-восточный, В - восточный, ЮВ - юго-восточный, Ю - южный, ЮЗ - юго-западный, З - западный, СЗ - северо-западный.
Видимость - горизонтальная дальность видимости в метрах или километрах. При видимости от 1 до 10 км при отсутствии осадков обычно наблюдается дымка, при ухудшении видимости до 1 км и менее - туман. В сухую погоду видимость может ухудшаться дымом, пылью или мглою.
Явления - указаны атмосферные явления, наблюдавшиеся в срок или в последний час перед сроком; фигурными скобками обозначены явления, наблюдавшиеся между сроками (за 1-3 часа до срока); квадратными скобками обозначены град или гололедные отложения с указанием их диаметра в мм.
Облачность - указаны через наклонную черту общая и нижняя облачность в баллах и высота нижней границы облаков в метрах; квадратными скобками обозначены формы облаков: Ci - перистые, Cs - перисто-слоистые, Cc - перисто-кучевые, Ac - высококучевые, As - высокослоистые, Sc - слоисто-кучевые, Ns - слоисто-дождевые, Cu - кучевые, Cb - кучево-дождевые. Подробнее классификацию облаков см. в Атласе облаков (PDF).
T - Температура воздуха - температура, измеренная на высоте 2 м над землей.
Td - Температура точки росы - температура, при понижении до которой содержащийся в воздухе водяной пар достигнет насыщения.
f - Относительная влажность воздуха - влажноcть воздуха, измеренная на высоте 2 м над землей.
Te - Эффективная температура - температура, которую ощущает одетый по сезону человек в тени. Характеристика душности погоды. При расчете учитывается влияние влажности воздуха и скорости ветра на теплоощущения человека.
Tes - Эффективная температура на солнце - температура, которую ощущает человек, с поправкой на солнечный нагрев. Характеристика знойности погоды. Зависит от высоты солнца над горизонтом, облачности и скорости ветра. Ночью, в пасмурную погоду, а также при ветре 12 м/с и более поправка равна нулю.
P - Атмосферное давление - приведенное к уровню моря атмосферное давление.
Po - Атмосферное давление - измеренное на уровне метеостанции атмосферное давление.
Tmin - Минимальная температура - минимум температуры воздуха на высоте 2 м над землей.
Tmax - Максимальная температура - максимум температуры воздуха на высоте 2 м над землей.
R - Количество осадков - Количество выпавших осадков, мм. При наведении курсора мыши на число - период времени, за который выпало указанное количество осадков.
S - Снежный покров - Высота снежного покрова, см. При наведении курсора мыши на число - состояние снежного покрова и степень покрытия местности в баллах.